Date,TemperatureHighF,TemperatureAvgF,TemperatureLowF,DewpointHighF,DewpointAvgF,DewpointLowF,HumidityHigh,HumidityAvg,HumidityLow,PressureMaxIn,PressureMinIn,WindSpeedMaxMPH,WindSpeedAvgMPH,GustSpeedMaxMPH,PrecipitationSumIn
2013-11-1,77.0,61.4,46.8,53.3,48.5,43.8,96,66,39,30.06,29.79,7,0,12,0.01
2013-11-2,67.3,55.7,45.7,44.4,40.7,35.6,89,61,32,30.27,30.06,10,1,15,0.00
2013-11-3,67.6,56.0,42.4,47.4,42.2,38.1,89,62,39,30.19,29.96,11,1,13,0.00
2013-11-4,60.1,57.7,55.0,59.2,53.6,47.7,97,86,68,30.07,29.96,9,0,11,0.52
2013-11-5,69.4,65.0,60.0,68.0,63.7,59.2,98,96,89,30.02,29.89,8,0,11,0.24
2013-11-6,71.0,55.3,44.4,68.8,49.6,39.6,96,82,61,30.34,29.91,13,2,18,0.22
2013-11-7,63.1,49.4,36.4,45.4,40.7,34.9,97,75,43,30.50,30.34,5,0,9,0.00
2013-11-8,66.9,54.3,40.0,46.6,42.7,38.7,97,68,37,30.37,30.11,7,0,13,0.00
2013-11-9,69.6,60.3,54.9,54.9,49.5,45.3,74,68,58,30.20,30.08,8,0,11,0.00
2013-11-10,64.7,56.8,48.3,52.4,49.1,46.6,94,76,60,30.31,30.19,5,0,6,0.00
2013-11-11,75.6,57.6,44.5,56.9,50.5,43.4,97,80,49,30.26,30.14,4,0,10,0.00
2013-11-12,61.4,48.6,36.2,56.9,34.4,19.7,91,60,33,30.67,30.25,12,3,19,0.00
2013-11-13,36.2,33.9,31.8,22.5,21.5,21.0,66,60,55,30.68,30.67,0,0,5,0.00
2013-11-18,61.8,61.4,60.5,39.8,37.7,35.8,46,41,38,30.13,30.10,6,2,11,0.00
2013-11-19,68.3,60.4,55.4,41.2,36.6,33.4,53,42,28,30.15,29.98,11,1,16,0.00
2013-11-20,64.6,56.9,47.0,55.2,43.6,35.5,84,61,48,30.00,29.86,6,0,11,0.00
2013-11-21,72.7,63.0,42.3,70.2,60.3,40.4,95,91,80,30.20,29.92,12,1,23,0.20
2013-11-22,42.3,35.9,34.3,40.3,33.7,32.0,95,92,87,30.45,30.18,13,3,21,0.29
2013-11-23,42.2,37.6,34.9,37.2,33.6,26.0,96,86,63,30.55,30.43,10,1,15,0.03
2013-11-24,36.6,33.7,32.1,27.6,25.1,20.6,80,71,61,30.59,30.35,7,1,12,0.01
2013-11-25,37.0,34.7,32.1,35.0,32.5,25.5,95,92,70,30.35,30.14,7,0,12,0.60
2013-11-26,51.6,41.8,34.7,36.9,32.0,25.3,94,70,47,30.38,30.13,15,3,21,0.00
2013-11-27,44.4,35.0,28.0,25.6,20.9,16.3,84,58,35,30.47,30.34,10,1,11,0.00
2013-11-28,55.0,37.7,26.4,31.4,26.8,22.1,86,68,34,30.44,30.35,5,0,8,0.00
2013-11-29,59.5,43.7,29.6,41.8,34.4,27.0,91,72,44,30.51,30.33,6,0,9,0.00
2013-11-30,66.9,53.3,42.6,53.3,45.5,36.1,91,75,60,30.33,30.12,9,1,22,0.00